Temp
35 36 36 36 36 37 36 36 35 35 33 28 25 26 25 23 31 30 28 29 28 28 27 28 27 27 27 26 26 25 24 23 22 22 22 22 21 19 19 19 18 18 18 17
33 35 36 36 37 37 37 37 37 37 26 25 24 25 25 24 28 29 28 27 28 28 28 27 27 27 27 26 26 25 24 24 23 23 22 22 21 20 20 19 19 18 18 17
32 34 35 34 36 36 37 37 37 33 27 25 25 25 23 27 28 28 27 27 26 27 26 25 25 25 25 24 24 24 24 24 23 23 22 21 22 21 20 19 18 17 16 16
32 33 31 34 33 32 35 37 37 30 27 24 22 25 25 30 28 27 27 26 26 25 24 22 21 20 20 20 21 23 23 24 23 23 23 22 21 19 17 17 16 15 15 14
30 31 33 32 31 30 34 35 37 34 28 25 26 29 27 27 27 27 25 24 22 20 19 17 16 15 17 18 19 21 22 22 23 23 20 18 17 17 16 15 14 13 13 12
29 30 30 33 34 35 34 32 34 34 31 27 27 26 25 26 25 24 22 20 18 16 15 14 13 14 14 16 16 17 18 19 19 17 15 14 15 14 14 13 13 11 10 10
30 30 32 34 34 34 31 30 32 29 32 28 27 25 24 25 24 22 20 17 15 14 13 12 11 11 11 11 11 11 13 13 14 14 13 12 13 13 12 10 9 8 8 8
30 30 29 33 33 31 29 30 29 26 24 22 22 23 24 24 22 20 18 16 14 13 11 11 10 10 9 9 10 10 10 11 10 11 11 11 12 10 10 9 8 7 7 7
27 27 28 30 28 29 29 29 28 26 25 24 24 24 23 21 19 18 15 14 13 12 11 10 10 9 9 9 9 9 8 8 8 8 8 8 8 8 8 8 7 7 6 6
25 27 24 27 28 29 29 28 27 27 26 25 24 23 21 18 17 16 14 13 12 11 11 10 9 9 9 9 8 8 8 8 8 8 8 8 8 8 7 7 7 6 6 6
22 22 20 24 28 27 27 27 27 26 26 25 24 22 19 17 16 15 13 12 11 11 12 11 10 10 10 9 9 9 9 8 8 8 7 7 7 7 7 7 8 7 7 7
25 21 20 21 26 27 26 26 25 24 23 23 22 21 18 16 15 14 12 12 12 11 11 11 11 11 11 11 11 11 10 9 9 8 8 8 7 7 8 7 8 8 8 8
21 22 21 20 18 16 24 24 23 23 22 21 20 19 17 16 14 13 12 12 12 12 12 12 12 12 12 12 13 13 13 13 13 13 12 11 10 9 7 7 8 8 8 8
20 21 21 22 19 20 22 23 22 22 21 20 19 17 16 15 14 13 13 13 13 13 13 13 14 14 14 13 13 13 13 13 13 13 13 13 12 11 10 11 10 8 8 8
21 19 20 19 22 23 23 22 21 21 20 20 18 17 16 15 14 14 14 14 15 15 15 15 15 14 14 14 14 14 15 15 16 16 16 16 16 15 15 13 12 10 8 9
22 17 17 15 17 23 23 22 21 19 20 19 18 17 16 15 14 13 14 15 15 16 16 16 16 16 15 15 15 16 17 17 16 16 16 16 16 16 15 15 15 12 11 11
24 25 25 22 20 22 21 21 20 19 18 18 18 17 16 15 14 14 14 16 16 16 17 17 17 17 17 18 18 17 17 16 16 17 17 16 16 16 15 14 15 13 11 11
25 25 26 24 23 22 21 20 19 18 19 17 17 17 16 16 15 15 16 16 16 18 18 18 18 17 18 17 18 18 17 17 17 17 16 15 14 14 14 13 14 13 11 11
25 25 25 24 22 22 21 19 18 18 19 16 15 15 15 15 14 15 16 17 17 18 17 17 17 17 17 16 17 18 17 17 16 15 15 14 14 13 13 13 14 13 13 12
25 25 25 23 22 20 19 17 18 18 18 16 15 15 15 15 15 16 17 17 16 15 15 15 15 16 16 15 16 17 17 17 17 15 14 15 14 13 14 14 13 14 14 13
25 24 22 21 21 20 18 17 17 17 16 14 14 14 15 15 16 16 15 14 13 13 14 15 15 16 16 16 16 17 18 18 17 16 15 15 14 15 15 15 14 14 14 13
23 22 21 19 17 16 15 15 14 14 14 13 14 14 14 14 15 15 15 14 13 14 15 15 15 15 15 15 16 16 17 17 17 17 17 16 16 16 15 14 14 14 13 13
20 18 16 15 14 12 12 12 13 12 12 12 12 12 12 12 13 14 13 13 13 14 14 14 14 14 14 14 15 16 16 16 16 16 16 16 16 15 15 14 14 14 13 13
15 15 13 12 11 11 10 10 10 11 11 11 11 12 12 12 12 13 13 13 13 13 13 13 13 14 14 14 14 15 15 15 15 15 15 15 15 15 15 14 13 13 13 11
12 11 11 11 11 10 9 9 9 9 10 10 10 11 12 13 13 12 13 12 12 13 13 13 13 13 12 13 14 15 15 15 14 15 15 15 14 14 14 14 13 13 12 12
11 11 10 10 9 9 9 9 9 10 10 11 12 12 11 12 13 12 11 11 12 12 13 13 12 12 12 13 15 15 14 14 14 14 14 14 14 13 14 13 13 12 12 11
9 10 10 10 10 10 10 10 11 11 12 14 13 11 12 11 11 11 11 12 12 14 14 14 14 13 13 14 14 14 14 14 14 13 13 13 13 13 13 13 12 12 12 12
Height
700 694 693 695 694 694 703 699 720 712 720 734 730 726 727 740 727 732 740 742 748 751 753 754 756 758 762 764 767 768 771 773 775 776 778 780 781 783 783 785 787 788 789 791
715 696 690 699 689 686 689 692 693 693 744 738 735 734 734 748 742 741 741 747 749 750 753 755 757 758 761 762 764 766 769 770 773 776 779 781 783 785 785 787 789 791 793 796
730 704 699 711 693 691 686 684 688 714 730 737 745 744 748 745 744 742 745 748 753 754 757 760 761 762 763 764 765 766 768 770 772 776 779 782 784 786 789 790 792 795 796 798
725 713 742 699 688 688 688 679 676 704 718 729 728 735 745 730 738 744 750 751 754 757 761 764 765 765 765 765 765 766 768 769 771 774 779 782 786 789 791 794 796 798 801 802
732 727 710 706 699 706 698 696 676 688 707 728 727 728 739 742 745 746 751 756 761 765 768 769 770 769 767 766 766 766 767 769 771 774 779 783 789 791 795 797 800 802 805 806
736 734 741 697 683 678 685 718 684 686 700 719 726 745 754 748 752 754 759 766 768 770 771 771 771 770 768 767 766 767 767 769 771 775 781 786 789 793 797 800 804 806 810 810
723 729 711 682 680 679 723 724 695 701 694 711 721 726 736 746 754 759 764 770 771 772 773 774 773 773 773 772 771 772 770 771 773 778 785 789 791 795 799 803 806 811 813 815
716 724 733 680 684 707 708 700 701 713 720 731 734 738 735 747 757 764 769 772 774 776 777 777 777 777 777 777 779 777 776 776 780 782 789 792 794 800 804 808 810 815 815 817
720 722 698 690 696 695 696 703 708 716 722 726 730 735 744 754 764 769 773 775 777 779 781 782 781 781 782 784 784 784 783 784 786 789 793 798 800 804 808 812 814 817 821 823
726 715 717 706 700 695 699 706 711 717 722 727 735 742 754 762 767 772 775 777 780 781 784 787 787 786 787 789 789 790 792 794 795 798 802 805 808 812 815 819 821 822 823 826
733 729 731 713 702 701 707 711 716 720 724 731 738 748 759 766 770 773 777 780 782 784 786 790 792 792 793 795 795 797 799 801 803 805 808 812 815 820 823 825 827 826 829 830
725 726 732 729 709 714 716 720 724 729 734 739 743 751 760 767 772 776 779 783 785 788 790 792 793 796 798 800 801 802 805 808 810 813 816 819 822 826 829 831 832 833 833 833
734 727 729 730 731 741 724 732 735 737 743 748 752 756 764 770 775 779 783 786 789 791 793 795 796 798 801 803 805 807 809 812 814 817 820 824 827 831 834 837 837 837 837 837
736 734 734 732 735 738 736 735 736 740 750 753 757 762 767 772 778 782 786 789 791 794 796 797 799 801 804 808 809 811 814 816 817 819 821 823 827 830 832 836 838 840 840 839
730 736 735 734 733 729 734 741 744 747 755 758 760 764 768 774 779 784 788 792 794 796 799 800 802 805 808 810 811 813 814 816 816 818 819 822 825 827 830 833 836 839 841 841
722 732 741 740 742 731 734 741 746 754 757 759 763 767 772 777 782 787 791 794 795 797 801 802 805 808 809 811 812 814 815 816 818 821 822 823 824 827 829 831 832 835 839 841
715 719 720 731 729 732 737 745 748 753 758 762 766 768 773 780 786 791 794 796 798 799 801 804 806 808 809 810 812 814 816 819 820 819 821 824 827 828 830 832 832 835 838 840
712 714 713 720 726 731 737 742 749 756 757 761 768 772 776 782 786 791 794 798 800 800 803 805 807 810 811 811 813 815 816 816 818 821 824 826 827 830 832 833 833 835 838 840
712 714 716 716 723 731 739 749 755 758 758 763 769 776 780 785 789 792 796 799 801 803 806 807 809 812 813 814 815 815 816 816 818 821 824 826 828 830 831 832 832 834 835 838
708 710 714 720 727 736 742 748 754 758 761 767 771 776 781 786 791 794 797 800 804 807 809 810 813 814 815 816 817 817 816 816 817 819 822 824 826 828 830 831 831 832 834 836
703 709 717 722 730 736 742 748 755 762 767 772 774 779 784 789 791 795 799 804 809 811 812 813 814 815 817 818 818 817 815 814 816 817 819 821 823 825 826 828 830 832 833 835
701 709 721 728 740 744 748 754 761 765 770 775 778 781 787 793 793 799 803 806 808 810 812 814 815 816 817 818 818 818 816 815 817 817 816 817 819 821 823 826 828 829 831 833
713 723 730 737 746 750 757 762 766 770 773 776 781 787 791 793 798 803 807 809 810 811 813 814 816 817 818 818 818 817 816 816 817 817 817 818 819 821 822 824 827 828 830 831
727 734 739 746 752 758 763 768 770 773 778 783 786 788 795 802 807 807 808 810 811 812 814 815 817 817 818 818 817 816 816 817 818 818 817 817 818 819 821 823 825 827 828 829
737 743 748 755 760 765 769 772 777 780 785 789 795 800 803 804 805 806 808 810 812 814 815 816 817 818 818 817 815 814 816 816 817 816 816 816 818 819 819 820 822 824 825 826
746 752 758 762 766 770 775 779 784 790 794 797 800 802 804 804 805 807 808 809 811 815 816 815 817 817 817 815 813 814 814 815 815 816 816 816 816 817 817 818 819 821 822 823
756 759 764 771 776 780 783 787 790 793 795 796 798 801 803 805 807 809 810 811 811 814 813 814 814 814 814 813 812 813 813 813 813 813 814 814 814 814 815 815 816 817 818 818
Wind_Speed
18 16 10 13 17 16 18 16 12 8 7 13 10 4 6 7 11 14 11 11 9 7 4 4 4 6 7 6 5 8 5 7 7 5 3 5 7 7 7 8 8 10 13 14
18 20 17 13 14 9 13 16 18 17 18 11 10 4 2 7 9 11 11 10 9 6 5 3 5 2 2 5 6 8 5 8 12 7 12 8 9 10 10 9 10 12 12 12
16 18 18 16 8 13 14 13 14 2 15 16 12 3 7 14 13 12 13 8 5 5 5 4 4 5 7 6 4 3 10 7 15 11 11 11 10 10 11 15 19 18 19 17
13 14 17 14 8 14 23 9 13 23 24 17 20 14 17 14 15 12 11 10 8 7 9 10 9 10 11 11 10 9 7 11 17 14 10 11 10 12 21 22 22 21 19 16
12 13 12 8 5 6 17 11 5 9 25 21 19 17 14 12 11 11 11 10 10 8 9 9 9 10 10 9 9 11 8 11 16 14 10 16 15 19 21 22 23 23 20 18
15 14 19 14 14 6 2 6 11 9 22 24 20 13 11 10 10 10 12 11 9 9 9 11 12 10 11 11 8 10 8 8 21 21 21 25 25 25 25 24 22 21 19 18
14 12 15 6 11 6 10 2 10 17 13 18 10 7 16 13 11 12 13 10 11 12 13 13 12 11 16 18 20 16 20 24 26 24 25 24 27 26 24 22 21 20 20 20
12 16 20 2 6 6 8 7 15 16 17 17 16 15 15 13 11 10 10 11 13 13 14 12 11 15 18 20 18 19 24 27 25 25 22 21 22 21 20 20 21 22 26 25
3 3 7 10 12 10 10 10 14 15 15 15 14 14 13 12 10 9 11 13 13 14 14 16 16 18 19 18 21 25 29 29 30 29 27 24 26 26 27 24 25 23 19 20
5 3 6 4 9 7 11 11 16 13 13 13 14 14 14 11 9 9 11 13 13 16 15 15 18 21 24 24 27 29 29 28 28 29 29 28 26 22 23 19 19 19 19 15
5 8 10 12 7 11 11 11 12 12 12 12 13 13 11 9 9 11 13 14 14 15 16 18 18 20 21 23 26 26 25 25 26 26 29 27 26 22 22 20 19 19 15 11
7 8 14 5 8 6 11 11 13 13 13 11 12 12 12 9 12 13 15 15 16 16 17 18 20 20 18 18 19 22 22 23 26 27 26 25 27 27 21 20 19 16 14 12
5 10 12 13 15 17 11 12 11 12 11 11 11 15 15 13 15 16 17 17 18 17 17 18 20 20 18 16 14 20 21 19 19 19 20 20 20 19 19 19 18 17 14 12
4 3 8 7 6 12 8 11 13 14 13 13 15 17 16 17 18 17 17 17 16 18 20 20 19 18 19 18 19 19 21 20 17 16 15 19 18 18 18 15 11 9 12 12
5 6 6 3 7 12 13 11 10 10 10 11 16 16 19 17 18 17 19 21 22 22 20 21 20 19 18 19 21 21 18 14 12 11 11 13 12 12 11 12 13 12 10 11
8 5 8 6 12 11 12 13 11 9 9 11 17 16 20 21 21 18 19 20 16 18 19 18 19 18 18 17 17 13 14 16 14 11 9 9 8 8 7 7 8 16 11 9
7 7 9 12 14 12 13 11 10 11 11 11 16 19 21 23 22 20 17 16 19 18 15 18 16 13 11 11 11 10 9 7 2 4 10 7 5 6 9 8 10 12 9 4
10 7 9 15 12 10 9 10 13 12 11 19 20 25 26 23 18 18 17 15 12 11 15 15 13 10 8 10 9 10 4 5 13 7 4 3 10 7 4 1 1 5 9 5
8 6 7 2 18 12 12 13 15 14 13 23 23 22 21 19 19 18 13 17 16 12 13 10 11 6 5 4 1 2 3 5 11 9 8 8 6 6 4 5 6 6 8 11
14 11 8 16 19 17 16 17 15 14 18 19 21 23 23 25 18 20 18 10 13 11 6 7 6 4 2 1 1 4 12 3 4 16 14 9 6 8 9 3 3 5 7 3
15 9 14 13 13 15 19 19 18 17 17 17 22 19 19 19 23 16 17 14 10 9 10 9 5 5 6 3 4 9 16 3 3 11 11 10 14 12 10 6 5 6 5 4
10 14 15 18 17 18 19 20 19 19 20 19 22 22 17 13 18 15 9 15 12 11 8 6 6 4 1 3 7 11 11 2 6 9 4 6 10 6 5 6 6 7 6 5
17 19 20 19 19 20 20 20 20 19 20 21 21 20 18 20 15 11 7 9 12 11 7 4 7 5 3 5 8 13 6 4 4 9 7 6 5 6 6 6 6 7 5 6
19 19 21 23 25 24 16 17 23 25 24 25 24 21 16 14 6 7 7 12 12 8 1 4 4 4 5 8 13 8 5 4 5 8 8 3 6 7 7 7 7 9 8 5
21 23 24 23 20 17 24 27 28 26 25 22 14 10 10 4 7 9 12 14 13 9 2 4 5 7 9 11 16 5 4 6 7 7 7 5 7 11 8 7 8 8 9 8
23 19 20 22 23 22 24 23 21 19 15 14 15 12 9 6 8 14 14 13 14 11 8 9 5 8 9 14 9 6 8 9 7 9 11 11 9 10 10 10 10 10 11 12
24 28 27 23 20 21 21 19 15 15 19 16 13 13 12 8 9 10 11 11 12 10 11 5 7 8 8 10 8 9 12 11 10 8 5 7 11 12 12 12 12 12 12 12
Wind_Direction
247 279 265 273 241 217 247 240 257 285 158 178 154 77 14 355 113 130 125 133 124 127 124 160 177 146 166 184 183 149 166 180 150 124 159 131 130 118 131 138 133 136 118 114
271 278 265 225 257 274 225 244 248 257 103 163 145 211 145 252 160 158 151 135 165 128 130 64 17 97 284 190 180 185 202 188 151 127 127 122 121 121 120 120 115 131 128 117
255 253 265 271 257 282 254 263 280 314 150 163 178 147 213 193 181 161 130 133 111 115 98 64 33 4 340 23 326 219 176 209 149 150 147 148 146 131 107 92 94 93 96 102
254 264 261 255 7 359 311 264 255 131 153 159 150 224 238 164 148 143 148 149 123 78 50 29 5 357 344 335 324 310 216 215 163 160 159 169 137 112 97 91 88 83 76 73
251 258 265 167 155 166 299 262 324 113 136 159 174 174 106 131 149 139 103 80 77 62 43 28 11 350 332 312 297 290 285 222 179 155 120 107 100 96 99 94 90 85 81 76
262 247 252 268 113 136 346 272 42 67 130 136 144 169 165 141 111 104 91 72 73 70 59 40 18 16 31 33 49 20 67 127 127 123 123 109 109 102 102 92 88 86 77 77
240 256 268 55 118 149 209 92 43 50 137 154 158 90 132 138 111 96 84 81 75 64 55 42 35 52 60 59 53 76 104 110 119 119 114 112 113 110 110 108 102 91 82 76
246 238 245 104 165 236 93 98 82 78 84 94 123 130 128 120 119 109 91 80 72 65 55 51 60 76 67 60 75 89 96 102 104 110 116 114 113 109 106 105 99 95 95 84
3 356 39 66 89 113 113 109 101 102 113 121 117 119 121 108 112 109 95 86 82 83 75 68 78 87 82 84 95 91 88 87 93 95 96 102 102 103 103 106 106 100 91 89
335 48 14 158 119 124 119 113 115 118 124 126 129 126 120 126 127 124 109 99 100 96 90 86 89 94 98 98 97 94 91 91 90 93 92 92 91 94 102 103 103 103 100 98
302 321 335 314 123 111 119 120 114 117 116 123 125 125 130 124 134 118 110 107 106 102 101 108 107 103 104 105 104 98 96 95 92 91 92 88 86 89 95 92 94 96 95 99
305 45 217 295 97 127 121 120 108 113 112 114 121 133 123 125 124 120 116 117 116 112 111 111 110 107 110 112 112 108 103 102 102 99 97 93 91 87 85 88 90 91 91 92
4 49 73 67 58 0 88 104 107 107 110 114 118 114 121 122 121 121 121 122 123 125 122 119 117 118 119 120 121 116 116 116 113 110 111 110 107 105 100 88 87 85 84 91
0 349 94 127 142 181 134 117 119 117 121 125 118 118 119 122 128 127 129 131 139 135 129 128 122 118 121 121 117 113 115 118 119 129 140 124 133 138 136 121 104 89 82 84
31 336 258 287 221 147 133 132 120 127 139 141 132 137 135 130 132 137 140 137 131 129 125 117 118 124 128 132 134 140 144 141 138 125 116 117 121 116 108 126 135 137 127 109
170 114 282 158 257 148 142 144 143 143 158 149 139 138 133 134 135 133 136 136 132 127 134 135 134 144 150 154 165 148 85 88 97 117 140 125 128 105 108 121 121 156 153 153
254 241 164 166 168 167 139 156 151 161 164 163 146 141 136 136 134 139 154 152 147 156 156 140 150 159 140 149 142 124 119 137 33 217 124 91 54 47 65 35 48 83 81 43
248 266 227 170 169 164 137 157 149 183 170 156 148 142 141 146 146 154 158 159 172 156 135 134 134 145 158 91 97 134 136 171 166 152 96 89 92 93 89 59 298 110 109 80
215 203 258 172 148 159 153 161 158 175 155 143 139 149 148 146 146 155 169 165 161 147 118 119 131 133 102 101 89 72 308 135 150 146 146 155 142 133 154 237 169 162 160 163
216 205 229 134 144 159 149 147 159 169 146 132 136 131 134 145 165 154 169 135 120 127 118 105 134 144 129 48 72 292 287 170 285 160 164 192 163 177 197 220 24 153 167 161
214 157 127 123 133 148 146 140 151 155 152 148 132 141 155 168 170 152 127 112 124 144 133 135 164 138 164 231 317 297 310 162 260 155 172 205 185 225 184 159 185 226 221 187
113 112 118 125 124 124 120 136 140 141 147 136 135 133 135 175 119 109 130 135 146 130 130 131 125 150 74 198 301 295 306 275 256 274 244 210 194 205 177 187 232 211 221 227
109 119 118 120 124 113 119 125 128 126 115 112 119 127 111 102 102 115 109 137 149 141 113 160 164 193 234 296 288 285 296 304 288 276 261 251 231 224 216 223 231 242 235 231
111 118 114 120 120 119 111 105 105 103 107 112 113 112 118 132 132 136 161 167 160 159 110 167 194 231 254 285 286 268 267 270 272 268 264 240 250 227 228 233 227 245 248 216
112 114 120 125 120 118 114 112 110 115 117 120 141 176 182 190 183 189 175 176 181 171 154 237 258 264 269 282 282 259 253 253 261 282 257 245 238 259 251 236 237 244 245 241
116 117 120 119 119 119 121 125 131 145 161 181 180 168 175 164 161 167 177 185 187 211 244 219 262 255 260 263 266 261 252 258 241 260 261 276 264 257 266 245 239 231 239 247
102 109 112 117 125 134 141 155 169 188 189 172 160 166 157 163 168 170 172 173 201 217 246 244 254 241 257 282 296 245 259 259 268 262 278 281 255 258 252 250 250 245 250 251